This is the latest recevied weather packets stored in our database for station/object KG7FOQ-13. If no packets are shown the sender has not sent any weather packets the latest 10 day(s).
| Time | Temp. | Humidity | Pressure | Rain* | Wind** | Luminosity | Snow |
|---|---|---|---|---|---|---|---|
| 1778167122 | 17.22° C | 40% | 1016.7 hPa | 0 mm | - | - | - |
| 1778166822 | 17.22° C | 41% | 1016.7 hPa | 0 mm | - | - | - |
| 1778166519 | 16.67° C | 42% | 1016.7 hPa | 0 mm | - | - | - |
| 1778166218 | 17.22° C | 42% | 1016.7 hPa | 0 mm | - | - | - |
| 1778165917 | 16.67° C | 43% | 1016.7 hPa | 0 mm | - | - | - |
| 1778165616 | 16.67° C | 42% | 1016.7 hPa | 0 mm | - | - | - |
| 1778165316 | 16.67° C | 43% | 1016.7 hPa | 0 mm | - | - | - |
| 1778165016 | 16.11° C | 43% | 1016.9 hPa | 0 mm | - | - | - |
| 1778164714 | 16.67° C | 46% | 1016.9 hPa | 0 mm | - | - | - |
| 1778164413 | 16.11° C | 46% | 1016.9 hPa | 0 mm | - | - | - |
| 1778164113 | 16.11° C | 46% | 1016.7 hPa | 0 mm | - | - | - |
| 1778163812 | 16.11° C | 46% | 1016.7 hPa | 0 mm | - | - | - |
| 1778163512 | 15.56° C | 46% | 1016.6 hPa | 0 mm | - | - | - |
| 1778162911 | 16.11° C | 45% | 1016.4 hPa | 0 mm | - | - | - |
| 1778162610 | 15.56° C | 46% | 1016.5 hPa | 0 mm | - | - | - |
| 1778162309 | 16.11° C | 47% | 1016.3 hPa | 0 mm | - | - | - |
| 1778162006 | 16.11° C | 47% | 1016.4 hPa | 0 mm | - | - | - |
| 1778161706 | 15.56° C | 46% | 1016.3 hPa | 0 mm | - | - | - |
| 1778161105 | 15.56° C | 47% | 1016.2 hPa | 0 mm | - | - | - |
| 1778160804 | 15.56° C | 47% | 1016 hPa | 0 mm | - | - | - |
| 1778160504 | 15.56° C | 47% | 1016.2 hPa | 0 mm | - | - | - |
| 1778160203 | 15.56° C | 47% | 1015.9 hPa | 0 mm | - | - | - |
| 1778159903 | 15.56° C | 48% | 1015.9 hPa | 0 mm | - | - | - |
| 1778159602 | 15° C | 48% | 1015.9 hPa | 0 mm | - | - | - |
| 1778159301 | 15° C | 48% | 1015.9 hPa | 0 mm | - | - | - |
* Rain latest hour (hover to see other rain measurements)
** Current wind speed in m/s (hover to see current wind gust speed)